Burns, OR

11:53 PM PDT on June 23, 2017 (GMT -0700)
Burns Municipal

Weather History for KBNO - August, 2013

Change the Weather History Date:

Saturday, August 31, 2013

  Actual Average Record
Temperature  
Mean Temperature 66 °F 61 °F  
Max Temperature 91 °F 81 °F 95 °F (1987)
Min Temperature 40 °F 41 °F 22 °F (1999)
Degree Days  
Heating Degree Days 0 5  
Month to date heating degree days 32 78  
Since 1 June heating degree days 224 355  
Since 1 July heating degree days 36 137  
Cooling Degree Days 1 1  
Month to date cooling degree days 76 74  
Year to date cooling degree days 351 206  
Since 1 June cooling degree days 350 203  
Growing Degree Days 15 (Base 50)    
Moisture  
Dew Point 35 °F    
Average Humidity 45    
Maximum Humidity 79    
Minimum Humidity 10    
Precipitation  
Precipitation 0.00 in 0.01 in 0.44 in (1964)
Month to date precipitation 0.51 0.36  
Year to date precipitation 3.92 6.98  
Sea Level Pressure  
Sea Level Pressure 29.97 in    
Wind  
Wind Speed 4 mph (NNW)    
Max Wind Speed 10 mph    
Max Gust Speed 17 mph    
Visibility 10 miles    
Events      
T = Trace of Precipitation, MM = Missing Value Source: NWS Daily Summary

Daily Weather History Graph

Daily Weather History Graph

Search for Another Location

Airport or City:

Trip Planner

Search our weather history database for the weather conditions in past years. The results will help you decide how hot, cold, wet, or windy it might be!

Date:

Astronomy

Aug. 31, 2013 Rise Set
Actual Time 6:18 AM PDT 7:32 PM PDT
Civil Twilight 5:49 AM PDT 8:01 PM PDT
Nautical Twilight 5:13 AM PDT 8:37 PM PDT
Astronomical Twilight 4:36 AM PDT 9:14 PM PDT
Moon 1:46 AM PDT (8/31) 4:38 PM PDT (8/31)
Length of Visible Light 14h 12m
Length of Day
13h 13m
Waning Crescent, 20% of the Moon is Illuminated
Aug 31
Waning Crescent
Sep 5
New
Sep 12
First Quarter
Sep 19
Full
Sep 26
Last Quarter

Hourly Weather History & Observations

Time (PDT) Temp. Windchill Dew Point Humidity Pressure Visibility Wind Dir Wind Speed Gust Speed Precip Events Conditions
12:53 AM 51.1 °F - 37.9 °F 61% 30.03 in 10.0 mi Calm Calm - N/A   Clear
1:53 AM 48.9 °F - 33.1 °F 54% 30.04 in 10.0 mi West 3.5 mph - N/A   Clear
2:53 AM 45.0 °F 43.5 °F 34.0 °F 65% 30.04 in 10.0 mi NNW 3.5 mph - N/A   Clear
3:53 AM 45.0 °F 41.8 °F 36.0 °F 71% 30.03 in 10.0 mi West 5.8 mph - N/A   Clear
4:53 AM 46.0 °F 44.8 °F 37.9 °F 73% 30.03 in 10.0 mi West 3.5 mph - N/A   Clear
5:53 AM 41.0 °F 39.0 °F 35.1 °F 79% 30.05 in 10.0 mi NW 3.5 mph - N/A   Clear
6:53 AM 45.0 °F 43.5 °F 34.0 °F 65% 30.06 in 10.0 mi NNE 3.5 mph - N/A   Clear
7:53 AM 57.0 °F - 37.9 °F 49% 30.06 in 10.0 mi NNE 4.6 mph - N/A   Clear
8:53 AM 64.9 °F - 41.0 °F 42% 30.06 in 10.0 mi ENE 3.5 mph - N/A   Clear
9:53 AM 71.1 °F - 41.0 °F 34% 30.06 in 10.0 mi Variable 4.6 mph - N/A   Clear
10:53 AM 75.9 °F - 39.0 °F 26% 30.04 in 10.0 mi ESE 8.1 mph - N/A   Clear
11:53 AM 80.1 °F - 37.9 °F 22% 30.02 in 10.0 mi Calm Calm - N/A   Clear
12:53 PM 82.9 °F - 36.0 °F 19% 29.99 in 10.0 mi Calm Calm - N/A   Clear
1:53 PM 87.1 °F - 30.0 °F 13% 29.97 in 10.0 mi Variable 6.9 mph - N/A   Clear
2:53 PM 88.0 °F - 30.9 °F 13% 29.94 in 10.0 mi SSE 5.8 mph - N/A   Clear
3:53 PM 89.1 °F - 30.0 °F 12% 29.92 in 10.0 mi Variable 3.5 mph - N/A   Clear
4:53 PM 91.0 °F - 30.0 °F 11% 29.88 in 10.0 mi North 5.8 mph - N/A   Clear
5:53 PM 91.0 °F - 28.9 °F 11% 29.88 in 10.0 mi North 3.5 mph - N/A   Clear
6:53 PM 87.1 °F - 34.0 °F 15% 29.87 in 10.0 mi North 3.5 mph - N/A   Clear
7:53 PM 71.1 °F - 39.0 °F 31% 29.88 in 10.0 mi NNE 4.6 mph - N/A   Clear
8:53 PM 61.0 °F - 30.9 °F 32% 29.89 in 10.0 mi WNW 3.5 mph - N/A   Clear
9:53 PM 57.9 °F - 28.9 °F 33% 29.90 in 10.0 mi WSW 4.6 mph - N/A   Clear
10:53 PM 57.0 °F - 32.0 °F 39% 29.90 in 10.0 mi SW 6.9 mph - N/A   Clear
11:53 PM 54.0 °F - 32.0 °F 43% 29.90 in 10.0 mi NNW 5.8 mph - N/A   Clear